Salina, KS

9:07 AM CDT on May 24, 2017 (GMT -0500)
Salina Municipal

Weather History for KSLN - January, 2013

Change the Weather History Date:

Thursday, January 31, 2013

  Actual Average Record
Temperature  
Mean Temperature 16 °F 32 °F  
Max Temperature 24 °F 43 °F 75 °F (1989)
Min Temperature 7 °F 21 °F -18 °F (1979)
Degree Days  
Heating Degree Days 49 33  
Month to date heating degree days 988 1049  
Since 1 July heating degree days 2765 3016  
Cooling Degree Days 0 0  
Month to date cooling degree days 0 0  
Year to date cooling degree days 0 0  
Moisture  
Dew Point 12 °F    
Average Humidity 70    
Maximum Humidity 83    
Minimum Humidity 57    
Precipitation  
Precipitation T in 0.03 in 0.74 in (2015)
Month to date precipitation 0.88 0.63  
Year to date precipitation 0.88 0.63  
Sea Level Pressure  
Sea Level Pressure 30.26 in    
Wind  
Wind Speed 9 mph (North)    
Max Wind Speed 24 mph    
Max Gust Speed 30 mph    
Visibility 9 miles    
Events Snow    
T = Trace of Precipitation, MM = Missing Value Source: NWS Daily Summary

Daily Weather History Graph

Daily Weather History Graph

Search for Another Location

Airport or City:

Trip Planner

Search our weather history database for the weather conditions in past years. The results will help you decide how hot, cold, wet, or windy it might be!

Date:

Astronomy

Jan. 31, 2013 Rise Set
Actual Time 7:37 AM CST 5:51 PM CST
Civil Twilight 7:09 AM CST 6:19 PM CST
Nautical Twilight 6:37 AM CST 6:51 PM CST
Astronomical Twilight 6:05 AM CST 7:22 PM CST
Moon 10:51 PM CST (1/31) 9:40 AM CST (1/31)
Length of Visible Light 11h 10m
Length of Day
10h 14m
Waning Gibbous, 79% of the Moon is Illuminated
Jan 31
Waning Gibbous
Feb 3
Last Quarter
Feb 10
New
Feb 17
First Quarter
Feb 25
Full

Hourly Weather History & Observations

Time (CST) Temp. Windchill Dew Point Humidity Pressure Visibility Wind Dir Wind Speed Gust Speed Precip Events Conditions
12:53 AM 19.0 °F 13.9 °F 14.0 °F 81% 29.97 in 10.0 mi SSE 3.5 mph - N/A   Clear
1:53 AM 19.0 °F - 14.0 °F 81% 29.96 in 10.0 mi Calm Calm - N/A   Clear
2:53 AM 18.0 °F 8.7 °F 12.9 °F 81% 29.98 in 10.0 mi SW 6.9 mph - N/A   Clear
3:53 AM 19.9 °F - 14.0 °F 78% 30.00 in 10.0 mi Calm Calm - N/A   Partly Cloudy
4:53 AM 21.2 °F 11.7 °F 15.8 °F 80% 29.97 in 10.0 mi North 8.1 mph - N/A   Overcast
5:53 AM 23.0 °F 12.4 °F 17.1 °F 78% 30.04 in 10.0 mi NNW 10.4 mph - N/A   Overcast
6:53 AM 21.9 °F 14.5 °F 16.0 °F 78% 30.09 in 10.0 mi North 5.8 mph - N/A   Overcast
7:53 AM 21.9 °F 11.7 °F 14.0 °F 72% 30.12 in 10.0 mi NNE 9.2 mph - N/A   Overcast
8:53 AM 21.9 °F 10.4 °F 12.9 °F 68% 30.18 in 10.0 mi NNE 11.5 mph - N/A   Overcast
9:53 AM 21.9 °F 10.4 °F 15.1 °F 75% 30.26 in 2.0 mi North 11.5 mph - 0.00 in Snow Light Snow
10:04 AM 21.2 °F 10.9 °F 15.8 °F 80% 30.21 in 1.0 mi North 9.2 mph - 0.00 in Snow Light Snow
10:12 AM 21.2 °F 10.1 °F 15.8 °F 80% 30.21 in 1.0 mi North 10.4 mph - 0.00 in Snow Light Snow
10:27 AM 21.2 °F 10.1 °F 15.8 °F 80% 30.22 in 3.0 mi North 10.4 mph - 0.00 in Snow Light Snow
10:41 AM 21.2 °F 9.5 °F 15.8 °F 80% 30.23 in 9.0 mi North 11.5 mph - 0.00 in   Overcast
10:53 AM 21.9 °F 8.7 °F 16.0 °F 78% 30.30 in 10.0 mi North 15.0 mph - 0.00 in   Overcast
11:40 AM 21.2 °F 7.3 °F 14.0 °F 74% 30.28 in 9.0 mi North 16.1 mph - N/A   Overcast
11:53 AM 21.9 °F 6.2 °F 14.0 °F 72% 30.35 in 9.0 mi North 21.9 mph - 0.00 in   Overcast
12:53 PM 21.9 °F 7.3 °F 12.0 °F 66% 30.36 in 10.0 mi North 18.4 mph 24.2 mph N/A   Mostly Cloudy
2:53 PM 21.9 °F 5.8 °F 10.0 °F 60% 30.38 in 9.0 mi North 23.0 mph - N/A   Clear
3:53 PM 21.9 °F 7.3 °F 8.1 °F 55% 30.38 in 9.0 mi North 18.4 mph - N/A   Partly Cloudy
4:53 PM 19.9 °F 7.9 °F 9.0 °F 62% 30.41 in 10.0 mi NNW 11.5 mph - N/A   Clear
5:53 PM 17.6 °F 10.7 °F 6.8 °F 63% 30.36 in 10.0 mi NNW 4.6 mph - N/A   Clear
6:53 PM 16.0 °F - 6.1 °F 65% 30.44 in 10.0 mi Calm Calm - N/A   Clear
7:53 PM 12.9 °F 3.8 °F 5.0 °F 71% 30.49 in 10.0 mi WSW 5.8 mph - N/A   Clear
8:53 PM 12.0 °F 5.9 °F 5.0 °F 73% 30.50 in 10.0 mi SW 3.5 mph - N/A   Clear
9:53 PM 9.0 °F 0.6 °F 3.0 °F 77% 30.51 in 10.0 mi South 4.6 mph - N/A   Clear
10:53 PM 10.9 °F - 6.1 °F 81% 30.49 in 10.0 mi Calm Calm - N/A   Clear
11:53 PM 14.0 °F - 6.1 °F 71% 30.48 in 10.0 mi Calm Calm - N/A   Scattered Clouds